WJA553 CYYC-CYCD

Flight info

Callsign WJA553
Flight time 1h 3m
Altitude 38000
Route BOTAG Q894 BINVO DCT BOOTH DCT LANNE DCT IKMUV
Aircraft B738/M-SDE2E3FGHIRWXY/LB1

Departure

Time 2026-04-16 05:24
Airport Calgary International Airport (CYYC)

Arrival

Time 2026-04-16 06:27
Airport Nanaimo Airport (CYCD)
Time Latitude Longitude Altitude Speed Heading
2026-04-16 05:04 51.12929 -114.01153 3556 ft 0 kts 316°
2026-04-16 05:04 51.12932 -114.01156 3556 ft 0 kts 316°
2026-04-16 05:15 51.12930 -114.01154 3558 ft 2 kts 315°
2026-04-16 05:15 51.12916 -114.01127 3519 ft 3 kts 303°
2026-04-16 05:16 51.12904 -114.01102 3560 ft 2 kts 316°
2026-04-16 05:16 51.12891 -114.01077 3554 ft 3 kts 278°
2026-04-16 05:16 51.12895 -114.01051 3555 ft 3 kts 220°
2026-04-16 05:16 51.12913 -114.01033 3556 ft 3 kts 203°
2026-04-16 05:17 51.12934 -114.01020 3556 ft 3 kts 201°
2026-04-16 05:17 51.12943 -114.01014 3556 ft 0 kts 203°
2026-04-16 05:18 51.12941 -114.01015 3557 ft 2 kts 203°
2026-04-16 05:19 51.12907 -114.01042 3562 ft 0 kts 211°
2026-04-16 05:19 51.12876 -114.01072 3557 ft 13 kts 214°
2026-04-16 05:19 51.12796 -114.01052 3558 ft 17 kts 105°
2026-04-16 05:19 51.12755 -114.00920 3558 ft 19 kts 108°
2026-04-16 05:20 51.12701 -114.00731 3558 ft 17 kts 116°
2026-04-16 05:20 51.12619 -114.00600 3557 ft 17 kts 115°
2026-04-16 05:20 51.12616 -114.00420 3558 ft 16 kts 90°
2026-04-16 05:20 51.12614 -114.00206 3558 ft 23 kts 90°
2026-04-16 05:21 51.12614 -113.99955 3558 ft 22 kts 90°
2026-04-16 05:21 51.12614 -113.99709 3559 ft 22 kts 90°
2026-04-16 05:21 51.12606 -113.99476 3556 ft 12 kts 112°
2026-04-16 05:21 51.12530 -113.99437 3559 ft 23 kts 182°
2026-04-16 05:22 51.12296 -113.99446 3557 ft 37 kts 180°
2026-04-16 05:22 51.12047 -113.99447 3559 ft 35 kts 180°
2026-04-16 05:22 51.11813 -113.99447 3559 ft 33 kts 180°
2026-04-16 05:22 51.11594 -113.99446 3556 ft 30 kts 176°
2026-04-16 05:23 51.11538 -113.99257 3560 ft 21 kts 92°
2026-04-16 05:23 51.11539 -113.99104 3565 ft 21 kts 73°
2026-04-16 05:23 51.11764 -113.99036 3560 ft 64 kts
2026-04-16 05:23 51.12426 -113.99035 3565 ft 124 kts 360°
2026-04-16 05:24 51.13426 -113.99022 3820 ft 150 kts
2026-04-16 05:24 51.14471 -113.98953 4624 ft 161 kts
2026-04-16 05:24 51.15613 -113.98940 5408 ft 164 kts 359°
2026-04-16 05:24 51.16790 -113.99419 5628 ft 193 kts 326°
2026-04-16 05:25 51.17548 -114.01354 5846 ft 227 kts 288°
2026-04-16 05:25 51.17490 -114.04036 6046 ft 259 kts 262°
2026-04-16 05:25 51.16988 -114.06905 6546 ft 275 kts 258°
2026-04-16 05:25 51.16422 -114.09847 7258 ft 282 kts 257°
2026-04-16 05:26 51.15840 -114.12858 8047 ft 286 kts 257°
2026-04-16 05:26 51.15258 -114.15918 8797 ft 293 kts 256°
2026-04-16 05:26 51.14669 -114.19060 9571 ft 298 kts 256°
2026-04-16 05:26 51.14082 -114.22236 10185 ft 307 kts 255°
2026-04-16 05:27 51.13464 -114.25601 10588 ft 325 kts 255°
2026-04-16 05:27 51.12818 -114.29136 10776 ft 348 kts 255°
2026-04-16 05:27 51.12125 -114.32931 11020 ft 367 kts 254°
2026-04-16 05:27 51.11397 -114.36921 11340 ft 383 kts 254°
2026-04-16 05:28 51.10652 -114.40999 11927 ft 386 kts 254°
2026-04-16 05:28 51.09896 -114.45126 12593 ft 390 kts 253°
2026-04-16 05:28 51.09135 -114.49282 13395 ft 391 kts 252°
2026-04-16 05:28 51.08374 -114.53435 14157 ft 393 kts 252°
2026-04-16 05:29 51.07603 -114.57626 14806 ft 397 kts 252°
2026-04-16 05:29 51.06826 -114.61854 15511 ft 400 kts 252°
2026-04-16 05:29 51.06130 -114.66159 16204 ft 404 kts 254°
2026-04-16 05:29 51.05486 -114.70513 16925 ft 406 kts 254°
2026-04-16 05:30 51.04831 -114.74892 17638 ft 409 kts 254°
2026-04-16 05:30 51.04156 -114.79293 18286 ft 412 kts 253°
2026-04-16 05:30 51.03455 -114.83722 18928 ft 413 kts 252°
2026-04-16 05:30 51.02743 -114.88131 19733 ft 410 kts 252°
2026-04-16 05:31 51.02031 -114.92511 20470 ft 409 kts 252°
2026-04-16 05:31 51.01314 -114.96904 20979 ft 413 kts 252°
2026-04-16 05:31 51.00590 -115.01330 21513 ft 415 kts 252°
2026-04-16 05:31 50.99865 -115.05765 22092 ft 417 kts 252°
2026-04-16 05:32 50.99132 -115.10241 22673 ft 419 kts 252°
2026-04-16 05:32 50.98395 -115.14739 23065 ft 424 kts 252°
2026-04-16 05:32 50.97646 -115.19297 23415 ft 429 kts 253°
2026-04-16 05:32 50.96884 -115.23914 23724 ft 434 kts 253°
2026-04-16 05:33 50.96120 -115.28544 24170 ft 434 kts 253°
2026-04-16 05:33 50.95353 -115.33186 24577 ft 436 kts 252°
2026-04-16 05:33 50.94579 -115.37859 24876 ft 440 kts 252°
2026-04-16 05:33 50.93795 -115.42569 25258 ft 442 kts 252°
2026-04-16 05:34 50.93007 -115.47295 25670 ft 443 kts 252°
2026-04-16 05:34 50.92217 -115.52021 26014 ft 445 kts 252°
2026-04-16 05:34 50.91420 -115.56770 26390 ft 447 kts 252°
2026-04-16 05:34 50.90618 -115.61536 26760 ft 448 kts 252°
2026-04-16 05:35 50.89822 -115.66248 27100 ft 450 kts 252°
2026-04-16 05:35 50.89001 -115.71112 27371 ft 452 kts 252°
2026-04-16 05:35 50.88196 -115.75857 27747 ft 453 kts 252°
2026-04-16 05:35 50.87364 -115.80741 28113 ft 454 kts 252°
2026-04-16 05:36 50.86553 -115.85495 28541 ft 452 kts 252°
2026-04-16 05:36 50.85736 -115.90281 29108 ft 449 kts 252°
2026-04-16 05:36 50.84922 -115.95027 29678 ft 446 kts 252°
2026-04-16 05:36 50.84108 -115.99765 30120 ft 445 kts 252°
2026-04-16 05:37 50.83294 -116.04481 30408 ft 445 kts 252°
2026-04-16 05:37 50.82474 -116.09220 30667 ft 447 kts 252°
2026-04-16 05:37 50.81652 -116.13960 30977 ft 447 kts 252°
2026-04-16 05:37 50.80830 -116.18691 31353 ft 446 kts 252°
2026-04-16 05:38 50.80004 -116.23430 31683 ft 447 kts 253°
2026-04-16 05:38 50.79176 -116.28168 31922 ft 449 kts 253°
2026-04-16 05:38 50.78341 -116.32933 32219 ft 450 kts 253°
2026-04-16 05:38 50.77506 -116.37690 32590 ft 449 kts 253°
2026-04-16 05:39 50.76670 -116.42443 32927 ft 448 kts 253°
2026-04-16 05:39 50.75831 -116.47189 33186 ft 449 kts 253°
2026-04-16 05:39 50.74955 -116.51928 33470 ft 450 kts 253°
2026-04-16 05:39 50.74040 -116.56666 33798 ft 450 kts 252°
2026-04-16 05:40 50.73115 -116.61377 34074 ft 449 kts 252°
2026-04-16 05:40 50.72185 -116.66087 34315 ft 450 kts 252°
2026-04-16 05:40 50.71254 -116.70809 34498 ft 452 kts 252°
2026-04-16 05:40 50.70318 -116.75559 34750 ft 452 kts 252°
2026-04-16 05:41 50.69388 -116.80289 35021 ft 452 kts 253°
2026-04-16 05:41 50.68457 -116.85024 35274 ft 452 kts 253°
2026-04-16 05:41 50.67525 -116.89759 35498 ft 452 kts 253°
2026-04-16 05:41 50.66591 -116.94493 35751 ft 453 kts 253°
2026-04-16 05:42 50.65656 -116.99226 35991 ft 452 kts 252°
2026-04-16 05:42 50.64718 -117.03962 36237 ft 453 kts 253°
2026-04-16 05:42 50.63777 -117.08697 36478 ft 453 kts 253°
2026-04-16 05:42 50.62833 -117.13439 36646 ft 454 kts 253°
2026-04-16 05:43 50.61885 -117.18185 36863 ft 455 kts 253°
2026-04-16 05:43 50.60937 -117.22927 37117 ft 454 kts 253°
2026-04-16 05:43 50.59984 -117.27673 37369 ft 454 kts 253°
2026-04-16 05:43 50.59032 -117.32407 37579 ft 454 kts 253°
2026-04-16 05:44 50.58076 -117.37153 37776 ft 455 kts 253°
2026-04-16 05:44 50.56148 -117.46683 37822 ft 457 kts 253°
2026-04-16 05:45 50.54218 -117.56176 37826 ft 454 kts 253°
2026-04-16 05:45 50.52291 -117.65607 37831 ft 453 kts 253°
2026-04-16 05:46 50.50358 -117.75022 37832 ft 451 kts 253°
2026-04-16 05:46 50.48438 -117.84334 37848 ft 451 kts 252°
2026-04-16 05:47 50.46500 -117.93687 37848 ft 451 kts 252°
2026-04-16 05:47 50.44549 -118.03062 37854 ft 451 kts 252°
2026-04-16 05:48 50.42591 -118.12423 37865 ft 452 kts 252°
2026-04-16 05:48 50.40617 -118.21817 37858 ft 454 kts 252°
2026-04-16 05:49 50.38635 -118.31207 37873 ft 455 kts 252°
2026-04-16 05:49 50.36637 -118.40630 37867 ft 456 kts 252°
2026-04-16 05:50 50.34626 -118.50070 37872 ft 458 kts 252°
2026-04-16 05:50 50.32591 -118.59576 37876 ft 463 kts 252°
2026-04-16 05:51 50.30532 -118.69147 37880 ft 465 kts 252°
2026-04-16 05:51 50.28458 -118.78746 37880 ft 466 kts 252°
2026-04-16 05:52 50.26383 -118.88304 37874 ft 461 kts 253°
2026-04-16 05:52 50.24333 -118.97705 37880 ft 454 kts 252°
2026-04-16 05:53 50.22309 -119.06939 37882 ft 452 kts 252°
2026-04-16 05:53 50.20258 -119.16252 37894 ft 456 kts 253°
2026-04-16 05:54 50.18167 -119.25719 37891 ft 460 kts 252°
2026-04-16 05:54 50.16079 -119.35125 37896 ft 463 kts 252°
2026-04-16 05:55 50.13963 -119.44615 37891 ft 464 kts 253°
2026-04-16 05:55 50.11833 -119.54104 37894 ft 463 kts 252°
2026-04-16 05:56 50.09702 -119.63573 37891 ft 463 kts 252°
2026-04-16 05:56 50.07565 -119.73030 37908 ft 463 kts 252°
2026-04-16 05:57 50.05421 -119.82471 37935 ft 462 kts 252°
2026-04-16 05:57 50.03274 -119.91888 37932 ft 462 kts 252°
2026-04-16 05:58 50.01121 -120.01277 37939 ft 461 kts 253°
2026-04-16 05:58 49.98963 -120.10641 37953 ft 461 kts 252°
2026-04-16 05:59 49.96792 -120.20044 37967 ft 463 kts 252°
2026-04-16 05:59 49.95028 -120.27650 37965 ft 464 kts 252°
2026-04-16 06:00 49.92830 -120.37081 37965 ft 465 kts 252°
2026-04-16 06:00 49.90621 -120.46521 37968 ft 466 kts 252°
2026-04-16 06:01 49.88400 -120.55968 37975 ft 466 kts 252°
2026-04-16 06:01 49.86169 -120.65419 37982 ft 467 kts 252°
2026-04-16 06:02 49.82815 -120.79546 38000 ft 467 kts 252°
2026-04-16 06:02 49.80564 -120.88977 37989 ft 467 kts 252°
2026-04-16 06:03 49.78303 -120.98408 38027 ft 468 kts 252°
2026-04-16 06:03 49.76031 -121.07847 38033 ft 468 kts 252°
2026-04-16 06:04 49.73749 -121.17284 38035 ft 468 kts 252°
2026-04-16 06:04 49.71456 -121.26732 37598 ft 474 kts 252°
2026-04-16 06:05 49.70301 -121.31473 37087 ft 469 kts 252°
2026-04-16 06:05 49.69150 -121.36184 36445 ft 467 kts 252°
2026-04-16 06:05 49.68003 -121.40872 35818 ft 466 kts 252°
2026-04-16 06:05 49.66854 -121.45558 35116 ft 467 kts 252°
2026-04-16 06:06 49.65700 -121.50257 34401 ft 469 kts 252°
2026-04-16 06:06 49.64540 -121.54973 33582 ft 471 kts 252°
2026-04-16 06:06 49.63769 -121.58099 33041 ft 471 kts 252°
2026-04-16 06:06 49.62602 -121.62821 32237 ft 471 kts 252°
2026-04-16 06:07 49.61054 -121.69068 31161 ft 471 kts 252°
2026-04-16 06:07 49.59879 -121.73795 30333 ft 472 kts 252°
2026-04-16 06:07 49.58703 -121.78527 29342 ft 474 kts 252°
2026-04-16 06:07 49.57524 -121.83262 28339 ft 473 kts 251°
2026-04-16 06:08 49.56726 -121.86458 27690 ft 472 kts 251°
2026-04-16 06:08 49.55563 -121.91107 26704 ft 471 kts 251°
2026-04-16 06:08 49.54370 -121.95868 25731 ft 469 kts 251°
2026-04-16 06:08 49.53203 -122.00514 25049 ft 462 kts 251°
2026-04-16 06:09 49.52019 -122.05012 24326 ft 457 kts 247°
2026-04-16 06:09 49.50476 -122.09324 23607 ft 452 kts 240°
2026-04-16 06:09 49.48824 -122.13392 22779 ft 446 kts 239°
2026-04-16 06:09 49.47197 -122.17353 22061 ft 440 kts 239°
2026-04-16 06:10 49.45580 -122.21314 21350 ft 433 kts 240°
2026-04-16 06:10 49.44081 -122.25026 20701 ft 427 kts 240°
2026-04-16 06:10 49.42533 -122.28889 20014 ft 421 kts 240°
2026-04-16 06:10 49.41012 -122.32702 19322 ft 417 kts 240°
2026-04-16 06:11 49.39575 -122.36308 18698 ft 412 kts 240°
2026-04-16 06:11 49.38083 -122.40054 17970 ft 408 kts 240°
2026-04-16 06:11 49.36608 -122.43750 17266 ft 404 kts 240°
2026-04-16 06:11 49.35148 -122.47401 16583 ft 400 kts 240°
2026-04-16 06:12 49.33700 -122.51017 15920 ft 395 kts 240°
2026-04-16 06:12 49.32268 -122.54589 15271 ft 391 kts 240°
2026-04-16 06:12 49.30844 -122.58134 14609 ft 388 kts 240°
2026-04-16 06:12 49.29442 -122.61660 13976 ft 385 kts 242°
2026-04-16 06:13 49.28388 -122.65340 13298 ft 381 kts 253°
2026-04-16 06:13 49.27789 -122.69260 12543 ft 378 kts 264°
2026-04-16 06:13 49.27590 -122.73250 11869 ft 374 kts 268°
2026-04-16 06:13 49.27438 -122.77214 11217 ft 372 kts 268°
2026-04-16 06:14 49.27284 -122.81101 11046 ft 357 kts 268°
2026-04-16 06:14 49.27129 -122.84879 10869 ft 344 kts 268°
2026-04-16 06:14 49.26979 -122.88426 10724 ft 333 kts 268°
2026-04-16 06:14 49.26827 -122.91919 10583 ft 322 kts 268°
2026-04-16 06:15 49.26679 -122.95284 10452 ft 311 kts 268°
2026-04-16 06:15 49.26534 -122.98544 10325 ft 302 kts 268°
2026-04-16 06:15 49.26392 -123.01710 10202 ft 294 kts 268°
2026-04-16 06:15 49.26252 -123.04791 10070 ft 286 kts 268°
2026-04-16 06:16 49.26116 -123.07794 9892 ft 281 kts 268°
2026-04-16 06:16 49.25979 -123.10784 9589 ft 281 kts 268°
2026-04-16 06:16 49.25842 -123.13752 9301 ft 280 kts 267°
2026-04-16 06:16 49.25705 -123.16731 9014 ft 279 kts 267°
2026-04-16 06:17 49.25567 -123.19685 8735 ft 277 kts 267°
2026-04-16 06:17 49.25429 -123.22627 8446 ft 276 kts 267°
2026-04-16 06:17 49.25291 -123.25556 8162 ft 275 kts 267°
2026-04-16 06:17 49.25152 -123.28471 7884 ft 274 kts 267°
2026-04-16 06:18 49.25015 -123.31333 7611 ft 273 kts 267°
2026-04-16 06:18 49.24876 -123.34230 7306 ft 272 kts 268°
2026-04-16 06:18 49.24737 -123.37115 7034 ft 272 kts 267°
2026-04-16 06:18 49.24597 -123.39998 6753 ft 271 kts 267°
2026-04-16 06:19 49.24457 -123.42872 6477 ft 271 kts 267°
2026-04-16 06:19 49.24316 -123.45742 6184 ft 270 kts 267°
2026-04-16 06:19 49.24175 -123.48604 5894 ft 269 kts 268°
2026-04-16 06:19 49.24034 -123.51456 5608 ft 268 kts 267°
2026-04-16 06:20 49.23893 -123.54293 5340 ft 266 kts 268°
2026-04-16 06:20 49.23752 -123.57107 5076 ft 264 kts 268°
2026-04-16 06:20 49.23612 -123.59904 4798 ft 263 kts 267°
2026-04-16 06:20 49.23472 -123.62694 4573 ft 260 kts 267°
2026-04-16 06:21 49.23336 -123.65378 4489 ft 246 kts 267°
2026-04-16 06:21 49.23206 -123.67906 4380 ft 231 kts 268°
2026-04-16 06:21 49.23084 -123.70250 4257 ft 210 kts 268°
2026-04-16 06:21 49.22973 -123.72373 4172 ft 192 kts 268°
2026-04-16 06:22 49.22890 -123.74400 3775 ft 191 kts 272°
2026-04-16 06:22 49.22915 -123.76410 3379 ft 191 kts 274°
2026-04-16 06:22 49.22950 -123.78444 3047 ft 188 kts 274°
2026-04-16 06:22 49.22981 -123.80373 3011 ft 178 kts 274°
2026-04-16 06:23 49.23009 -123.82254 3015 ft 176 kts 274°
2026-04-16 06:23 49.22978 -123.84114 3012 ft 176 kts 264°
2026-04-16 06:23 49.22273 -123.85644 3019 ft 188 kts 215°
2026-04-16 06:23 49.21005 -123.86232 2983 ft 192 kts 195°
2026-04-16 06:24 49.19687 -123.86527 2767 ft 191 kts 193°
2026-04-16 06:24 49.18365 -123.86699 2521 ft 189 kts 188°
2026-04-16 06:24 49.17093 -123.86747 2258 ft 176 kts 187°
2026-04-16 06:24 49.15919 -123.86770 2022 ft 165 kts 187°
2026-04-16 06:25 49.14788 -123.86798 1790 ft 160 kts 188°
2026-04-16 06:25 49.13691 -123.86824 1577 ft 157 kts 188°
2026-04-16 06:25 49.12597 -123.86850 1367 ft 158 kts 187°
2026-04-16 06:25 49.11497 -123.86875 1123 ft 156 kts 187°
2026-04-16 06:26 49.10423 -123.86899 921 ft 153 kts 186°
2026-04-16 06:26 49.09376 -123.86922 716 ft 149 kts 186°
2026-04-16 06:26 49.08350 -123.86953 560 ft 146 kts 187°
2026-04-16 06:26 49.07336 -123.86968 366 ft 145 kts 186°
2026-04-16 06:27 49.06325 -123.86989 146 ft 145 kts 184°
2026-04-16 06:27 49.05384 -123.87017 101 ft 116 kts 181°
2026-04-16 06:27 49.04870 -123.87027 102 ft 34 kts 181°
2026-04-16 06:27 49.04654 -123.87035 101 ft 19 kts 180°
2026-04-16 06:28 49.04575 -123.87129 100 ft 15 kts 292°
2026-04-16 06:28 49.04642 -123.87240 99 ft 14 kts 315°
2026-04-16 06:28 49.04731 -123.87278 100 ft 14 kts
2026-04-16 06:28 49.04823 -123.87277 100 ft 13 kts
2026-04-16 06:29 49.04912 -123.87275 100 ft 13 kts
2026-04-16 06:29 49.04934 -123.87274 100 ft 0 kts
2026-04-16 06:35 49.04991 -123.87246 99 ft 44 kts 27°
2026-04-16 06:35 49.05262 -123.87281 99 ft 36 kts 323°
2026-04-16 06:36 49.05294 -123.87333 100 ft 0 kts 308°
2026-04-16 06:37 49.05290 -123.87378 100 ft 0 kts 94°
2026-04-16 06:37 49.05156 -123.87277 101 ft 381 kts 182°
2026-04-16 06:37 49.05315 -123.87308 101 ft 0 kts 14°
2026-04-16 06:38 49.05271 -123.87312 100 ft 0 kts 308°
2026-04-16 06:38 49.05280 -123.87323 100 ft 0 kts 307°
2026-04-16 06:38 49.05330 -123.87372 101 ft 149 kts 328°